#timestamp,LO_Frequency,Hit,StdDev 
1522105215.4,286047000.9,N
1522105235.2,286047002.2,N
1522105255.1,286047003.5,N
1522105256.0,286047003.5,N
1522105275.8,286047002.1,N
1522105295.6,286047002.8,N
1522105315.5,286047003.9,N
1522105335.3,286047000.5,N
1522105355.1,286047000.7,N
1522105375.9,286047002.1,N
1522105395.7,286046998.2,N
1522105415.6,286046998.5,N
1522105435.4,286047002.8,N
1522105455.2,286047002.4,N
1522105475.1,286046998.1,N
1522105476.0,286046998.1,N
1522105495.8,286046996.5,N
1522105515.7,286046999.3,N
1522105535.5,286046999.3,N
1522105555.3,286046998.5,N
1522105575.2,286046998.5,N
1522105595.9,286046998.6,N
1522105615.7,286047001.1,N
1522105635.6,286046998.9,N
1522105655.4,286046998.1,N
1522105675.2,286046998.4,N
1522105695.1,286047000.5,N
1522105696.0,286047000.5,N
1522105715.8,286047000.2,N
1522105735.7,286047002.2,N
1522105755.5,286046999.9,N
1522105775.3,286047000.9,N
1522105795.2,286046998.5,N
1522105815.0,286046998.1,N
1522105815.9,286046998.1,N
1522105835.8,286047002.0,N
1522105855.6,286047000.0,N
1522105875.4,286047000.5,N
1522105895.3,286047001.6,N
1522105915.1,286047002.5,N
1522105935.8,286047002.5,N
1522105955.7,286047000.3,N
1522105975.5,286047002.3,N
1522105995.4,286047002.8,N
1522106015.2,286047002.6,N
1522106035.0,286047000.3,N
1522106035.9,286047000.3,N
1522106055.8,286046998.2,N
1522106075.6,286047000.6,N
1522106095.4,286047000.9,N
1522106115.3,286047000.5,N
1522106135.1,286047000.4,N
1522106155.9,286047002.3,N
1522106175.7,286047001.7,N
1522106195.5,286047000.2,N
1522106215.4,286047001.5,N
1522106235.2,286047001.6,N
1522106255.0,286047003.7,N
1522106256.0,286047003.7,N
1522106275.8,286047003.2,N
1522106295.6,286047001.8,N
1522106315.5,286046999.7,N
1522106335.3,286047001.7,N
1522106355.1,286047000.1,N
1522106375.9,286046998.6,N
1522106395.7,286046998.4,N
1522106415.6,286046999.0,N
1522106435.4,286047000.7,N
1522106455.2,286047000.9,N
1522106475.1,286046998.1,N
1522106476.0,286046998.1,N
1522106495.8,286046999.4,N
1522106515.7,286046998.2,N
1522106535.5,286046998.4,N
1522106555.3,286046998.6,N
1522106575.2,286046998.6,N
1522106595.9,286047000.0,N
1522106615.7,286047002.4,N
1522106635.6,286047000.7,N
1522106655.4,286046998.9,N
1522106675.3,286046997.0,N
1522106695.1,286046999.2,N
1522106696.0,286046999.2,N
1522106715.8,286046998.4,N
1522106735.7,286046999.3,N
1522106755.5,286046998.8,N
1522106775.4,286046998.7,N
1522106795.2,286046999.0,N
1522106815.0,286046998.8,N
1522106815.9,286046998.8,N
1522106835.8,286047002.3,N
1522106855.6,286047003.4,N
1522106875.5,286047004.1,N
1522106895.3,286047002.4,N
1522106915.1,286046998.4,N
1522106935.9,286047000.4,N
1522106955.7,286047002.6,N
1522106975.5,286047002.4,N
1522106995.4,286047000.5,N
1522107015.2,286047002.0,N
1522107035.1,286047001.0,N
1522107036.0,286047001.0,N
1522107055.8,286047000.7,N
1522107075.6,286046999.9,N
1522107095.5,286047002.3,N
1522107115.3,286046998.4,N
1522107135.2,286046999.3,N
1522107155.9,286046999.4,N
1522107175.7,286046998.2,N
1522107195.6,286047000.2,N
1522107215.4,286047002.0,N
1522107235.3,286047000.1,N
1522107285.1,286047001.6,E
1522107295.0,286047002.5,N
1522107295.9,286047002.5,P
1522107315.8,286047002.8,P
1522107335.6,286046999.3,Y
1522107355.5,286046999.2,P
1522107375.3,286046998.2,N
1522107395.1,286046999.0,N
1522107415.9,286046996.9,N
1522107435.7,286046998.8,N
1522107455.5,286046997.0,N
1522107475.4,286046999.6,N
1522107495.2,286046996.7,N
1522107515.1,286046997.4,N
1522107516.0,286046997.4,N
1522107535.8,286046999.1,N
1522107555.6,286046997.2,N
1522107575.5,286046995.4,N
1522107595.3,286046993.7,Y
1522107615.1,286046995.3,P
1522107635.9,286046997.4,N
1522107655.7,286046999.5,N
1522107675.6,286046998.8,N
1522107695.4,286046997.7,N
1522107715.2,286046999.3,N
1522107735.1,286046999.0,N
1522107736.0,286046999.0,N
1522107755.8,286046997.7,N
1522107775.6,286046997.3,N
1522107795.5,286046998.1,N
1522107815.3,286046997.2,N
1522107835.2,286046999.1,N
1522107855.9,286047000.5,N
1522107875.7,286046999.8,N
1522107895.6,286047002.6,N
1522107915.4,286047002.3,N
1522107935.2,286047002.4,N
1522107955.1,286047000.9,N
1522107956.0,286047000.9,N
1522107975.8,286046999.5,N
1522107995.7,286047000.0,N
1522108015.5,286046999.2,N
1522108035.3,286046996.6,N
1522108055.2,286046997.7,N
1522108075.0,286046997.3,N
1522108075.9,286046997.3,N
1522108095.8,286046995.0,N
1522108115.6,286046997.2,N
1522108135.4,286046997.3,N
1522108155.3,286046997.2,N
1522108175.1,286047001.1,N
1522108195.8,286047000.7,N
1522108215.7,286047000.0,N
1522108235.5,286047001.9,N
1522108255.4,286046999.7,N
1522108275.2,286046998.8,N
1522108295.0,286047000.8,N
1522108295.9,286047000.8,N
1522108315.8,286047001.0,N
1522108335.6,286046999.8,N
1522108355.5,286047002.6,N
1522108375.3,286047002.0,N
1522108395.1,286047002.4,N
1522108415.9,286047002.7,N
1522108435.7,286047002.1,N
1522108455.5,286047002.0,N
1522108475.4,286047002.1,N
1522108495.2,286047002.6,N
1522108515.1,286047002.4,N
1522108516.0,286047002.4,N
1522108535.8,286047000.7,N
1522108555.6,286046999.8,N
1522108575.5,286046999.8,N
1522108595.3,286047002.5,N
1522108615.2,286047002.1,N
1522108635.9,286047005.8,N
1522108655.7,286047001.8,N
1522108675.6,286047002.4,N
1522108695.4,286046999.8,N
1522108715.2,286046998.4,N
1522108735.1,286046998.4,N
1522108736.0,286046998.4,N
1522108755.8,286047002.3,N
1522108775.7,286047002.0,N
1522108795.5,286047003.5,N
